AL YAH 3 (43174 NORAD) Tracking and Keplerian Element Data

This shows tracking and keplerian element data for the satellite.

Feedback or suggestion? Click here.




ElementValue
Catalog43174
NameAL YAH 3
Epoch Orbit41
Epoch Day53.88942624
Epoch Year2018
RAAN195.904
Inclination5.545
Eccentricity0.2883564
Argument of Perigee273.8659
Mean Anonmoly233.4738
Mean Motion1.01712818
Decay Rate-1.06E-06
L11 43174U 18012A 18053.88942624 -.00000106 00000-0 00000-0 0 9999
L22 43174 5.5450 195.9040 2883564 273.8659 233.4738 1.01712818 418

Live tracking and technical data element details for AL YAH 3 (NORAD 43174). AL YAH 3 can be tracked NOW for your location showing map with azimuth and elevation plus other details from your city location.

Track the satellite on the map from your city or location and see movement details for azimuth, elevation, latitude, longitude, range, height, and movement on the map or in text.







IsCatalogInMostPopularTable: catalog: 43174, numindb: 213
Update: records affected: 1



GetName: 43174 AL YAH 3

Hit Count: updated at: Fri, 16 Nov 2018 11:20:02 GMT